Terug naar catalogus

FENGYUN 1C DEB

ActiefSSO
NORAD 30411·DEBRIS·🇨🇳 China

Gelanceerd May 10, 1999 vanaf Taiyuan Satellite Launch Center

Loading…

Volgende Passages (komende 24 uur)

TLE

VersSource: Space-Track

Epoch: Sep 14, 2026, 04:20 UTC

1 30411U 99025AEA 26257.18121086  .00001861  00000-0  10181-2 0  9992
2 30411  98.5692 159.4697 0124212  45.2542 315.8658 14.09231257998618

Volg FENGYUN 1C DEB in realtime met AllMySat

Download on the App Store